TimeCST,TemperatureF,Dew PointF,Humidity,Sea Level PressureIn,VisibilityMPH,Wind Direction,Wind SpeedMPH,Gust SpeedMPH,PrecipitationIn,Events,Conditions,WindDirDegrees,DateUTC
12:15 AM,43.7,24.3,46,29.91,10.0,SSE,12.7,-,N/A,,Clear,150,2013-11-03 05:15:00
12:35 AM,42.8,24.8,49,29.90,10.0,SSE,11.5,-,N/A,,Clear,150,2013-11-03 05:35:00
12:55 AM,43.0,25.3,50,29.89,10.0,SSE,11.5,-,N/A,,Clear,150,2013-11-03 05:55:00
1:15 AM,43.9,25.3,48,29.89,10.0,SSE,13.8,-,N/A,,Clear,160,2013-11-03 06:15:00
1:35 AM,43.7,25.7,49,29.88,10.0,SSE,13.8,-,N/A,,Clear,160,2013-11-03 06:35:00
1:55 AM,44.1,26.1,49,29.88,10.0,SSE,15.0,19.6,N/A,,Clear,160,2013-11-03 06:55:00
1:15 AM,44.4,26.2,49,29.87,10.0,SSE,16.1,-,N/A,,Clear,160,2013-11-03 07:15:00
1:35 AM,44.6,26.4,49,29.86,10.0,SSE,18.4,25.3,N/A,,Clear,160,2013-11-03 07:35:00
1:55 AM,43.7,26.6,51,29.85,10.0,SSE,16.1,-,N/A,,Clear,160,2013-11-03 07:55:00
2:15 AM,43.9,27.0,51,29.84,10.0,SSE,16.1,23.0,N/A,,Clear,160,2013-11-03 08:15:00
2:35 AM,44.6,27.1,50,29.83,10.0,SSE,17.3,25.3,N/A,,Clear,160,2013-11-03 08:35:00
2:55 AM,43.9,27.3,52,29.82,10.0,SSE,20.7,26.5,N/A,,Clear,160,2013-11-03 08:55:00
3:15 AM,43.5,27.5,53,29.82,10.0,SSE,18.4,21.9,N/A,,Clear,160,2013-11-03 09:15:00
3:35 AM,43.2,28.0,55,29.81,10.0,SSE,16.1,23.0,N/A,,Clear,160,2013-11-03 09:35:00
3:55 AM,43.0,28.0,56,29.81,10.0,South,17.3,21.9,N/A,,Clear,170,2013-11-03 09:55:00
4:15 AM,42.8,28.4,57,29.80,10.0,SSE,17.3,21.9,N/A,,Clear,160,2013-11-03 10:15:00
4:35 AM,42.8,28.4,57,29.78,10.0,South,18.4,24.2,N/A,,Clear,170,2013-11-03 10:35:00
4:55 AM,43.3,28.4,56,29.77,10.0,South,23.0,26.5,N/A,,Clear,170,2013-11-03 10:55:00
5:15 AM,43.2,28.4,56,29.77,10.0,South,20.7,26.5,N/A,,Clear,170,2013-11-03 11:15:00
5:35 AM,43.2,28.4,56,29.75,10.0,South,17.3,28.8,N/A,,Clear,170,2013-11-03 11:35:00
5:55 AM,42.8,28.4,57,29.75,10.0,SSE,20.7,26.5,N/A,,Clear,160,2013-11-03 11:55:00
6:15 AM,42.8,28.4,57,29.75,10.0,South,20.7,25.3,N/A,,Clear,170,2013-11-03 12:15:00
6:35 AM,42.3,28.4,58,29.74,10.0,South,20.7,25.3,N/A,,Clear,170,2013-11-03 12:35:00
6:55 AM,41.9,28.6,59,29.73,10.0,South,20.7,27.6,N/A,,Clear,170,2013-11-03 12:55:00
7:15 AM,41.9,28.8,60,29.73,10.0,South,20.7,25.3,N/A,,Clear,170,2013-11-03 13:15:00
7:35 AM,41.9,28.8,60,29.73,10.0,South,20.7,-,N/A,,Clear,170,2013-11-03 13:35:00
7:55 AM,42.4,29.1,59,29.73,10.0,South,20.7,25.3,N/A,,Clear,170,2013-11-03 13:55:00
8:15 AM,43.0,29.1,58,29.73,10.0,South,20.7,25.3,N/A,,Clear,180,2013-11-03 14:15:00
8:35 AM,43.5,29.3,57,29.72,10.0,South,20.7,29.9,N/A,,Clear,170,2013-11-03 14:35:00
8:55 AM,44.6,29.3,55,29.71,10.0,South,21.9,29.9,N/A,,Clear,170,2013-11-03 14:55:00
9:15 AM,45.3,29.5,54,29.69,10.0,South,21.9,29.9,N/A,,Clear,170,2013-11-03 15:15:00
9:35 AM,46.0,29.8,53,29.69,10.0,South,23.0,28.8,N/A,,Clear,170,2013-11-03 15:35:00
9:55 AM,47.5,30.0,51,29.67,10.0,South,19.6,27.6,N/A,,Clear,170,2013-11-03 15:55:00
10:15 AM,48.4,30.2,49,29.65,10.0,South,23.0,32.2,N/A,,Clear,180,2013-11-03 16:15:00
10:35 AM,49.5,30.2,48,29.66,10.0,South,23.0,34.5,N/A,,Clear,180,2013-11-03 16:35:00
10:55 AM,50.9,30.2,45,29.66,10.0,South,27.6,35.7,N/A,,Clear,190,2013-11-03 16:55:00
11:15 AM,50.4,30.2,46,29.67,10.0,South,24.2,33.4,N/A,,Clear,180,2013-11-03 17:15:00
11:35 AM,51.3,30.6,45,29.65,10.0,South,25.3,31.1,N/A,,Clear,180,2013-11-03 17:35:00
11:55 AM,52.5,31.3,44,29.65,10.0,South,19.6,28.8,N/A,,Clear,180,2013-11-03 17:55:00
12:15 PM,53.6,30.6,41,29.64,10.0,South,25.3,32.2,N/A,,Clear,180,2013-11-03 18:15:00
12:35 PM,53.2,30.9,43,29.63,10.0,South,23.0,29.9,N/A,,Clear,180,2013-11-03 18:35:00
12:55 PM,54.7,31.5,41,29.63,10.0,South,17.3,26.5,N/A,,Clear,180,2013-11-03 18:55:00
1:15 PM,56.1,31.1,39,29.62,10.0,South,19.6,29.9,N/A,,Clear,180,2013-11-03 19:15:00
1:35 PM,54.7,31.3,41,29.61,10.0,South,19.6,26.5,N/A,,Clear,170,2013-11-03 19:35:00
1:55 PM,55.4,30.9,39,29.60,10.0,South,20.7,28.8,N/A,,Clear,180,2013-11-03 19:55:00
2:15 PM,55.8,31.3,39,29.58,10.0,South,20.7,28.8,N/A,,Clear,170,2013-11-03 20:15:00
2:35 PM,56.3,31.8,39,29.57,10.0,SSE,18.4,25.3,N/A,,Clear,160,2013-11-03 20:35:00
2:55 PM,58.1,30.9,36,29.57,10.0,South,19.6,25.3,N/A,,Clear,180,2013-11-03 20:55:00
3:15 PM,59.2,30.6,34,29.58,10.0,South,20.7,32.2,N/A,,Clear,180,2013-11-03 21:15:00
3:35 PM,58.1,30.9,36,29.58,10.0,South,21.9,27.6,N/A,,Clear,180,2013-11-03 21:35:00
3:55 PM,57.4,31.8,38,29.59,10.0,South,15.0,-,N/A,,Clear,180,2013-11-03 21:55:00
4:15 PM,57.4,32.0,38,29.59,10.0,South,11.5,19.6,N/A,,Clear,190,2013-11-03 22:15:00
4:35 PM,57.7,32.0,38,29.59,10.0,South,15.0,23.0,N/A,,Clear,190,2013-11-03 22:35:00
4:55 PM,56.7,32.5,40,29.59,10.0,South,10.4,-,N/A,,Clear,180,2013-11-03 22:55:00
5:15 PM,56.3,32.5,41,29.58,10.0,South,11.5,-,N/A,,Clear,170,2013-11-03 23:15:00
5:35 PM,55.6,32.5,42,29.60,10.0,South,11.5,16.1,N/A,,Clear,180,2013-11-03 23:35:00
5:55 PM,55.2,32.4,42,29.62,10.0,South,10.4,-,N/A,,Clear,190,2013-11-03 23:55:00
6:15 PM,53.4,32.9,46,29.62,10.0,South,9.2,-,N/A,,Clear,180,2013-11-04 00:15:00
6:35 PM,52.0,33.1,49,29.62,10.0,SSE,6.9,-,N/A,,Clear,160,2013-11-04 00:35:00
6:55 PM,50.2,33.4,53,29.63,10.0,South,4.6,-,N/A,,Clear,170,2013-11-04 00:55:00
7:15 PM,49.1,33.6,55,29.64,10.0,SSE,4.6,-,N/A,,Clear,150,2013-11-04 01:15:00
7:35 PM,48.6,33.3,56,29.64,10.0,South,4.6,-,N/A,,Clear,170,2013-11-04 01:35:00
7:55 PM,47.5,33.3,58,29.65,10.0,South,5.8,-,N/A,,Clear,170,2013-11-04 01:55:00
8:15 PM,46.2,33.8,62,29.65,10.0,South,4.6,-,N/A,,Clear,190,2013-11-04 02:15:00
8:35 PM,45.7,33.8,63,29.66,10.0,South,4.6,-,N/A,,Clear,170,2013-11-04 02:35:00
8:55 PM,44.1,32.9,65,29.67,10.0,West,5.8,-,N/A,,Clear,280,2013-11-04 02:55:00
9:15 PM,41.0,33.1,73,29.67,10.0,West,3.5,-,N/A,,Clear,260,2013-11-04 03:15:00
9:35 PM,41.4,32.4,70,29.67,10.0,Calm,Calm,-,N/A,,Clear,0,2013-11-04 03:35:00
9:55 PM,41.9,32.9,70,29.67,10.0,Calm,Calm,-,N/A,,Clear,0,2013-11-04 03:55:00
10:15 PM,42.6,33.1,69,29.69,10.0,Calm,Calm,-,N/A,,Clear,0,2013-11-04 04:15:00
10:35 PM,40.6,32.7,73,29.69,10.0,Calm,Calm,-,N/A,,Clear,0,2013-11-04 04:35:00
10:55 PM,39.6,32.5,76,29.69,10.0,West,5.8,-,N/A,,Clear,260,2013-11-04 04:55:00